Location: Brookfield Center
(41.2406°N, 80.5579°W)
Time: 03:50:41
(UTC+00:00)

STARLINK-30 - Pass Details

Date: 18 January 2020
Orbit: 528 x 531 km, 53.0° (Epoch: 26 February)

Event Time Altitude Azimuth Distance (km) Brightness Sun altitude
Rises 11:45:31 0° 228° (SW) 2,653 6.8 -11.1°
Reaches altitude 10° 11:47:43 10° 227° (SW) 1,767 5.9 -10.7°
Maximum altitude 11:51:43 82° 140° (SE) 539 3.6 -10.0°
Drops below altitude 10° 11:55:45 10° 53° (NE) 1,778 6.7 -9.2°
Sets 11:57:59 0° 53° (NE) 2,671 7.6 -8.8°
